TimeCST,TemperatureF,Dew PointF,Humidity,Sea Level PressureIn,VisibilityMPH,Wind Direction,Wind SpeedMPH,Gust SpeedMPH,PrecipitationIn,Events,Conditions,WindDirDegrees,DateUTC
12:15 AM,-15.3,-20.2,79,30.43,10.0,Calm,Calm,-,N/A,,Clear,0,2013-12-08 06:15:00
12:35 AM,-16.8,-22.5,75,30.42,10.0,Calm,Calm,-,N/A,,Clear,0,2013-12-08 06:35:00
12:55 AM,-17.9,-23.8,74,30.41,10.0,Calm,Calm,-,N/A,,Clear,0,2013-12-08 06:55:00
1:15 AM,-17.9,-23.4,76,30.41,10.0,Calm,Calm,-,N/A,,Clear,0,2013-12-08 07:15:00
1:35 AM,-19.3,-25.6,73,30.41,7.0,Calm,Calm,-,N/A,Snow,Light Snow,0,2013-12-08 07:35:00
1:55 AM,-20.0,-26.1,73,30.41,10.0,Calm,Calm,-,N/A,,Clear,0,2013-12-08 07:55:00
2:15 AM,-20.4,-26.7,73,30.41,10.0,Calm,Calm,-,N/A,,Clear,0,2013-12-08 08:15:00
2:35 AM,-20.4,-26.5,73,30.41,10.0,Calm,Calm,-,N/A,,Clear,0,2013-12-08 08:35:00
2:55 AM,-22.0,-28.3,73,30.41,10.0,Calm,Calm,-,N/A,,Clear,0,2013-12-08 08:55:00
3:15 AM,-21.1,-27.4,73,30.41,10.0,Calm,Calm,-,N/A,,Clear,0,2013-12-08 09:15:00
3:35 AM,-19.7,-25.6,74,30.40,10.0,Calm,Calm,-,N/A,,Clear,0,2013-12-08 09:35:00
3:55 AM,-20.6,-26.9,73,30.40,10.0,Calm,Calm,-,N/A,,Clear,0,2013-12-08 09:55:00
4:15 AM,-19.5,-25.2,75,30.40,10.0,Calm,Calm,-,N/A,,Clear,0,2013-12-08 10:15:00
4:35 AM,-19.3,-25.4,73,30.39,10.0,Calm,Calm,-,N/A,,Clear,0,2013-12-08 10:35:00
4:55 AM,-18.2,-23.8,76,30.38,10.0,Calm,Calm,-,N/A,,Clear,0,2013-12-08 10:55:00
5:15 AM,-16.1,-21.6,76,30.37,10.0,Calm,Calm,-,N/A,,Clear,0,2013-12-08 11:15:00
5:35 AM,-15.9,-21.3,77,30.38,10.0,Calm,Calm,-,N/A,,Clear,0,2013-12-08 11:35:00
5:55 AM,-15.9,-21.3,77,30.37,10.0,Calm,Calm,-,N/A,,Scattered Clouds,0,2013-12-08 11:55:00
6:15 AM,-14.6,-19.7,78,30.37,10.0,Calm,Calm,-,N/A,,Scattered Clouds,0,2013-12-08 12:15:00
6:35 AM,-14.4,-20.0,76,30.37,10.0,Calm,Calm,-,N/A,,Overcast,0,2013-12-08 12:35:00
6:55 AM,-13.4,-18.4,78,30.37,10.0,Calm,Calm,-,N/A,,Overcast,0,2013-12-08 12:55:00
7:15 AM,-12.1,-16.8,80,30.36,10.0,Calm,Calm,-,N/A,,Overcast,0,2013-12-08 13:15:00
7:35 AM,-11.0,-15.9,79,30.36,10.0,Calm,Calm,-,N/A,,Overcast,0,2013-12-08 13:35:00
7:55 AM,-9.8,-14.8,78,30.36,10.0,Calm,Calm,-,N/A,,Overcast,0,2013-12-08 13:55:00
8:15 AM,-8.7,-13.5,79,30.36,10.0,Calm,Calm,-,N/A,,Overcast,0,2013-12-08 14:15:00
8:35 AM,-7.6,-12.1,81,30.35,7.0,Calm,Calm,-,N/A,,Overcast,0,2013-12-08 14:35:00
8:55 AM,-6.5,-11.0,81,30.36,7.0,Calm,Calm,-,N/A,,Overcast,0,2013-12-08 14:55:00
9:15 AM,-5.4,-9.8,82,30.36,5.0,Calm,Calm,-,N/A,,Overcast,0,2013-12-08 15:15:00
9:35 AM,-4.2,-8.5,82,30.36,7.0,Calm,Calm,-,N/A,,Overcast,0,2013-12-08 15:35:00
9:55 AM,-2.9,-6.9,83,30.35,5.0,Calm,Calm,-,N/A,,Overcast,0,2013-12-08 15:55:00
10:15 AM,-2.0,-6.7,80,30.33,4.0,Calm,Calm,-,N/A,,Haze,0,2013-12-08 16:15:00
10:35 AM,-0.6,-5.1,81,30.32,5.0,Calm,Calm,-,N/A,,Overcast,0,2013-12-08 16:35:00
10:55 AM,0.3,-4.5,80,30.30,5.0,Calm,Calm,-,N/A,,Haze,0,2013-12-08 16:55:00
11:15 AM,1.9,-2.9,80,30.29,2.5,Calm,Calm,-,N/A,Snow,Light Snow,0,2013-12-08 17:15:00
11:35 AM,3.2,-2.2,78,30.28,4.0,Calm,Calm,-,N/A,,Haze,0,2013-12-08 17:35:00
11:55 AM,4.5,-0.9,78,30.26,5.0,SE,3.5,-,N/A,,Haze,140,2013-12-08 17:55:00
12:15 PM,5.2,-0.6,77,30.25,10.0,Calm,Calm,-,N/A,,Mostly Cloudy,0,2013-12-08 18:15:00
12:35 PM,6.1,-0.0,76,30.24,10.0,SE,4.6,-,N/A,,Overcast,140,2013-12-08 18:35:00
12:55 PM,6.6,0.9,77,30.23,5.0,Calm,Calm,-,N/A,,Haze,0,2013-12-08 18:55:00
1:15 PM,7.5,1.8,77,30.22,3.0,ESE,4.6,-,N/A,,Haze,110,2013-12-08 19:15:00
1:35 PM,8.2,2.8,79,30.21,2.5,SE,3.5,-,N/A,,Haze,130,2013-12-08 19:35:00
1:55 PM,8.2,3.2,80,30.19,2.0,Calm,Calm,-,N/A,Snow,Light Snow,0,2013-12-08 19:55:00
2:15 PM,8.2,3.4,81,30.18,1.8,East,4.6,-,N/A,Snow,Light Snow,90,2013-12-08 20:15:00
2:35 PM,8.2,3.4,81,30.17,4.0,East,5.8,-,N/A,Snow,Light Snow,100,2013-12-08 20:35:00
2:55 PM,8.2,3.2,80,30.17,4.0,ESE,6.9,-,N/A,Snow,Light Snow,110,2013-12-08 20:55:00
3:15 PM,8.4,3.9,82,30.16,2.0,ESE,5.8,-,N/A,Snow,Light Snow,120,2013-12-08 21:15:00
3:35 PM,8.4,3.7,81,30.16,2.5,ESE,5.8,-,N/A,Snow,Light Snow,120,2013-12-08 21:35:00
3:55 PM,8.2,4.1,83,30.15,2.0,ESE,3.5,-,N/A,Snow,Light Snow,110,2013-12-08 21:55:00
4:15 PM,8.2,4.3,84,30.15,1.8,ESE,3.5,-,N/A,Snow,Light Snow,110,2013-12-08 22:15:00
4:35 PM,8.1,4.1,84,30.14,2.5,ESE,4.6,-,N/A,Snow,Light Snow,110,2013-12-08 22:35:00
4:55 PM,7.7,4.1,85,30.13,4.0,East,5.8,-,N/A,Snow,Light Snow,100,2013-12-08 22:55:00
5:15 PM,7.7,3.6,83,30.11,5.0,East,3.5,-,N/A,Snow,Light Snow,80,2013-12-08 23:15:00
5:35 PM,7.5,3.6,84,30.11,5.0,East,3.5,-,N/A,Snow,Light Snow,100,2013-12-08 23:35:00
5:55 PM,7.3,3.2,83,30.10,4.0,ESE,5.8,-,N/A,Snow,Light Snow,110,2013-12-08 23:55:00
6:15 PM,7.3,3.4,84,30.10,3.0,ESE,3.5,-,N/A,Snow,Light Snow,120,2013-12-09 00:15:00
6:35 PM,7.5,3.6,84,30.09,4.0,Calm,Calm,-,N/A,Snow,Light Snow,0,2013-12-09 00:35:00
6:55 PM,7.5,3.9,85,30.08,3.0,Calm,Calm,-,N/A,Snow,Light Snow,0,2013-12-09 00:55:00
7:15 PM,7.5,3.7,85,30.07,2.5,Calm,Calm,-,N/A,Snow,Light Snow,0,2013-12-09 01:15:00
7:35 PM,7.3,3.7,85,30.06,4.0,Calm,Calm,-,N/A,Snow,Light Snow,0,2013-12-09 01:35:00
7:55 PM,7.3,3.7,85,30.05,4.0,Calm,Calm,-,N/A,Snow,Light Snow,0,2013-12-09 01:55:00
8:15 PM,7.2,3.7,86,30.03,5.0,Calm,Calm,-,N/A,Snow,Light Snow,0,2013-12-09 02:15:00
8:35 PM,7.2,3.7,86,30.03,5.0,Calm,Calm,-,N/A,Snow,Light Snow,0,2013-12-09 02:35:00
8:55 PM,7.2,3.6,85,30.02,7.0,Calm,Calm,-,N/A,Snow,Light Snow,0,2013-12-09 02:55:00
9:15 PM,6.8,3.2,85,30.01,4.0,Calm,Calm,-,N/A,Snow,Light Snow,0,2013-12-09 03:15:00
9:35 PM,6.6,3.2,86,30.00,4.0,Calm,Calm,-,N/A,Snow,Light Snow,0,2013-12-09 03:35:00
9:55 PM,6.4,3.0,86,29.99,7.0,Calm,Calm,-,N/A,Snow,Light Snow,0,2013-12-09 03:55:00
10:15 PM,6.6,3.2,86,29.98,4.0,Calm,Calm,-,N/A,Snow,Light Snow,0,2013-12-09 04:15:00
10:35 PM,6.6,3.2,86,29.96,3.0,Calm,Calm,-,N/A,Snow,Light Snow,0,2013-12-09 04:35:00
10:55 PM,6.8,3.4,86,29.95,5.0,Calm,Calm,-,N/A,,Overcast,0,2013-12-09 04:55:00
11:15 PM,7.0,3.6,86,29.94,5.0,Calm,Calm,-,N/A,,Overcast,0,2013-12-09 05:15:00
11:35 PM,6.8,3.7,87,29.93,5.0,Calm,Calm,-,N/A,,Overcast,0,2013-12-09 05:35:00
11:55 PM,6.8,3.7,87,29.92,3.0,Calm,Calm,-,N/A,Snow,Light Snow,0,2013-12-09 05:55:00